Weather History for HEGN - October, 2012

Change the Weather History Date:

Saturday, October 27, 2012

  Actual Average (WUND) Record (WUND)
Temperature  
Mean Temperature 78 °F -  
Max Temperature 87 °F 78 °F - (-1)
Min Temperature 69 °F 63 °F - (-1)
Cooling Degree Days 13    
Growing Degree Days 28 (Base 50)    
Moisture  
Dew Point 56 °F    
Average Humidity 45    
Maximum Humidity 73    
Minimum Humidity 27    
Precipitation  
Precipitation 0.00 in - - ()
Sea Level Pressure  
Sea Level Pressure 29.90 in    
Wind  
Wind Speed 5 mph ()    
Max Wind Speed 9 mph    
Max Gust Speed -    
Visibility 6.0 miles    
Events      
Averages and records for this station are not official NWS values.
T = Trace of Precipitation, MM = Missing Value Source: Averaged Metar Reports

Daily Weather History Graph

Daily Weather History Graph

Search for Another Location

Airport or City:

Trip Planner

Search our weather history database for the weather conditions in past years. The results will help you decide how hot, cold, wet, or windy it might be!

Date:

Astronomy

Oct. 27, 2012 Rise Set
Actual Time 5:51 AM EET 5:05 PM EET
Civil Twilight 5:27 AM EET 5:28 PM EET
Nautical Twilight 5:00 AM EET 5:56 PM EET
Astronomical Twilight 4:33 AM EET 6:23 PM EET
Moon 3:33 PM EET (10/27) 3:36 AM EET (10/27)
Length of Visible Light 12h 00m
Length of Day
11h 13m
Waxing Gibbous, 95% of the Moon is Illuminated
Oct 27
Waxing Gibbous
Oct 29
Full
Nov 7
Last Quarter
Nov 14
New
Nov 20
First Quarter

Hourly Weather History & Observations

Time (EET) Temp. Heat Index Dew Point Humidity Pressure Visibility Wind Dir Wind Speed Gust Speed Precip Events Conditions
12:00 AM 73.4 °F - 48.2 °F 41% 29.89 in - WNW 6.9 mph - N/A   Clear
1:00 AM 73.4 °F - 46.4 °F 38% 29.89 in - WNW 5.8 mph - N/A   Clear
2:00 AM 73 °F - 47 °F 28% 29.89 in 6 mi NW 4.6 mph - -  
4:00 AM 71.6 °F - 48.2 °F 43% 29.89 in - NNW 8.1 mph - N/A   Clear
5:00 AM 71.6 °F - 48.2 °F 43% 29.89 in - NW 9.2 mph - N/A   Clear
6:00 AM 69.8 °F - 48.2 °F 46% 29.92 in - WNW 6.9 mph - N/A   Clear
7:00 AM 73.4 °F - 50.0 °F 44% 29.92 in - WNW 9.2 mph - N/A   Clear
8:00 AM 78 °F - 50 °F 27% 29.95 in 6 mi NW 5.8 mph - -  
8:00 AM 78.8 °F - 50.0 °F 36% 29.95 in - NW 5.8 mph - N/A   Clear
9:00 AM 80.6 °F 80.3 °F 53.6 °F 39% 29.95 in - NNW 8.1 mph - N/A   Clear
10:00 AM 82.4 °F 81.4 °F 53.6 °F 37% 29.95 in - North 9.2 mph - N/A   Clear
11:00 AM 82.4 °F 82.9 °F 60.8 °F 48% 29.92 in - NNE 8.1 mph - N/A   Clear
12:00 PM 84.2 °F 84.4 °F 60.8 °F 45% 29.92 in - North 5.8 mph - N/A   Clear
1:00 PM 86.0 °F 86.1 °F 60.8 °F 43% 29.89 in - NNE 5.8 mph - N/A   Clear
2:00 PM 85 °F - 63 °F 37% 29.87 in 6 mi NNE 6.9 mph - -  
2:00 PM 86.0 °F 86.6 °F 62.6 °F 45% 29.86 in - NNE 6.9 mph - N/A   Clear
3:00 PM 86.0 °F 85.4 °F 59.0 °F 40% 29.86 in - NE 4.6 mph - N/A   Clear
4:00 PM 86.0 °F 86.1 °F 60.8 °F 43% 29.86 in - ENE 3.5 mph - N/A   Clear
5:00 PM 82.4 °F 82.9 °F 60.8 °F 48% 29.86 in - NNE 3.5 mph - N/A   Clear
6:00 PM 80.6 °F 82.3 °F 64.4 °F 58% 29.89 in - Calm Calm - N/A   Clear
7:00 PM 80.6 °F 82.7 °F 66.2 °F 61% 29.89 in - Calm Calm - N/A   Clear
8:00 PM 77 °F - 59 °F 44% 29.91 in 6 mi Calm Calm - -  
8:00 PM 77.0 °F - 59.0 °F 54% 29.89 in - Calm Calm - N/A   Clear
9:00 PM 77.0 °F - 59.0 °F 54% 29.92 in - NNW 3.5 mph - N/A   Clear
10:00 PM 73.4 °F - 57.2 °F 57% 29.92 in - NW 4.6 mph - N/A   Clear
11:00 PM 75.2 °F - 66.2 °F 73% 29.92 in - NNW 6.9 mph - N/A   Clear